CW2323 Weather Reports


Display with metric or nautical units.
time (UTC)temp
F
wind
direction
speed
MPH
gust
MPH
rain 1hr
in
rain 24hr
in
rain mn
in
humidity
%
barometer
mb
20260831002200 71 136 2.0 7.0 0.00 0.10 0.10 61 1010.9
20260831001201 70 153 3.0 10.0 0.00 0.10 0.10 62 1011.1
20260831000149 70 165 5.0 9.0 0.00 0.10 0.10 63 1011.1
20260830235159 69 144 3.0 8.0 0.00 0.10 0.10 68 1011.2
20260830234204 68 155 5.0 8.0 0.00 0.10 0.10 69 1011.6
20260830233150 67 129 3.0 8.0 0.00 0.10 0.10 71 1011.6
20260830232216 66 142 5.0 7.0 0.00 0.10 0.10 72 1011.2
20260830231152 66 209 3.0 6.0 0.01 0.10 0.10 77 1011.4
20260830230157 65 272 2.0 4.0 0.01 0.10 0.10 74 1011.4
20260830225203 65 297 0.0 3.0 0.04 0.11 0.10 79 1011.5
20260830224148 65 298 2.0 4.0 0.09 0.11 0.10 81 1011.8
20260830223213 64 299 3.0 4.0 0.10 0.11 0.10 82 1011.8
20260830222158 64 311 0.0 3.0 0.10 0.11 0.10 83 1011.3
20260830221207 63 312 1.0 3.0 0.09 0.10 0.09 81 1011.4
20260830220206 64 311 1.0 5.0 0.09 0.10 0.09 76 1011.4
20260830215227 66 272 4.0 14.0 0.05 0.06 0.05 66 1012.0
20260830214210 69 321 10.0 16.0 0.00 0.01 0.00 50 1011.2
20260830213149 70 346 6.0 19.0 0.00 0.01 0.00 45 1011.2
20260830212156 72 307 9.0 19.0 0.00 0.01 0.00 42 1010.6
20260830211202 75 17 15.0 26.0 0.00 0.01 0.00 34 1010.0
20260830210203 81 5 18.0 33.0 0.00 0.01 0.00 28 1010.0
20260830205150 83 34 5.0 8.0 0.00 0.01 0.00 27 1009.3
20260830204203 83 81 5.0 8.0 0.00 0.01 0.00 26 1008.8
20260830203148 83 99 5.0 9.0 0.00 0.01 0.00 27 1008.8
20260830202152 83 111 4.0 10.0 0.00 0.01 0.00 27 1008.7
20260830201157 84 111 4.0 8.0 0.00 0.01 0.00 25 1008.8
20260830200159 83 86 2.0 8.0 0.00 0.01 0.00 26 1008.8
20260830194207 82 130 5.0 10.0 0.00 0.01 0.00 25 1008.9
20260830193155 82 159 6.0 9.0 0.00 0.01 0.00 25 1008.9
20260830192201 82 144 5.0 12.0 0.00 0.01 0.00 25 1009.3
20260830191206 82 113 3.0 8.0 0.00 0.01 0.00 25 1009.3
20260830190151 82 97 2.0 9.0 0.00 0.01 0.00 27 1009.3
20260830185149 82 145 2.0 6.0 0.00 0.01 0.00 27 1009.4
20260830184154 81 146 4.0 7.0 0.00 0.01 0.00 27 1009.7
20260830183200 81 148 1.0 6.0 0.00 0.01 0.00 28 1009.7
20260830182223 81 125 4.0 7.0 0.00 0.01 0.00 29 1009.9
20260830181207 80 122 1.0 5.0 0.00 0.01 0.00 28 1010.0
20260830180150 80 131 3.0 5.0 0.00 0.01 0.00 31 1010.0
20260830175151 79 165 2.0 7.0 0.00 0.01 0.00 28 1010.3
20260830174155 78 96 3.0 6.0 0.00 0.01 0.00 32 1010.6
20260830173205 78 155 1.0 5.0 0.00 0.01 0.00 31 1010.6
20260830172152 78 230 2.0 4.0 0.00 0.01 0.00 31 1010.6
20260830171154 76 230 0.0 1.0 0.00 0.01 0.00 32 1010.8
20260830170203 76 230 0.0 2.0 0.00 0.01 0.00 33 1010.8
20260830165151 75 230 0.0 2.0 0.00 0.01 0.00 37 1011.1
20260830164158 74 230 0.0 3.0 0.00 0.01 0.00 37 1011.2
20260830163159 73 230 0.0 2.0 0.00 0.01 0.00 41 1011.2
20260830162208 72 230 1.0 5.0 0.00 0.01 0.00 40 1011.2
20260830161151 72 223 3.0 6.0 0.00 0.01 0.00 42 1011.2
20260830160208 71 214 2.0 4.0 0.00 0.01 0.00 43 1011.2
20260830155213 71 211 2.0 6.0 0.00 0.01 0.00 44 1010.9
20260830154156 71 177 2.0 4.0 0.00 0.01 0.00 44 1010.6
20260830153200 70 173 2.0 5.0 0.00 0.01 0.00 43 1010.6
20260830152203 70 173 0.0 3.0 0.00 0.01 0.00 45 1010.6
20260830151209 69 173 1.0 4.0 0.00 0.01 0.00 45 1010.5
20260830150150 69 173 0.0 2.0 0.00 0.01 0.00 46 1010.5
20260830145156 68 173 2.0 3.0 0.00 0.01 0.00 48 1010.6
20260830144158 67 173 0.0 3.0 0.00 0.01 0.00 49 1010.6
20260830143201 66 173 2.0 3.0 0.00 0.01 0.00 50 1010.6
20260830142152 66 173 1.0 3.0 0.00 0.01 0.00 53 1010.5
20260830141153 65 173 2.0 6.0 0.00 0.01 0.00 53 1010.6
20260830140200 64 173 3.0 5.0 0.00 0.01 0.00 57 1010.6
20260830135200 63 173 0.0 0.0 0.00 0.01 0.00 56 1010.6
20260830134204 63 173 0.0 0.0 0.00 0.01 0.00 58 1010.1
20260830133150 62 173 1.0 3.0 0.00 0.01 0.00 57 1010.1
20260830132151 61 173 0.0 4.0 0.00 0.01 0.00 60 1010.3
20260830131152 61 173 3.0 7.0 0.00 0.01 0.00 61 1009.9
20260830130152 61 173 6.0 7.0 0.00 0.01 0.00 62 1009.9
20260830125153 60 165 6.0 7.0 0.00 0.01 0.00 63 1009.9
20260830124205 60 163 3.0 4.0 0.00 0.01 0.00 63 1009.5
20260830123151 59 163 2.0 4.0 0.00 0.01 0.00 65 1009.5
20260830122159 58 163 3.0 4.0 0.00 0.01 0.00 66 1009.3
20260830121159 59 163 1.0 3.0 0.00 0.01 0.00 65 1009.3
20260830120206 59 163 0.0 1.0 0.00 0.01 0.00 64 1009.3
20260830115231 60 163 1.0 3.0 0.00 0.01 0.00 62 1009.3
20260830114207 61 163 0.0 1.0 0.00 0.01 0.00 61 1009.0
20260830113211 62 163 1.0 3.0 0.00 0.01 0.00 58 1009.0
20260830112155 63 163 1.0 4.0 0.00 0.01 0.00 56 1008.8
20260830111223 62 163 4.0 6.0 0.00 0.01 0.00 57 1009.2
20260830110206 62 165 5.0 8.0 0.00 0.01 0.00 58 1009.2
20260830105152 62 160 6.0 8.0 0.00 0.01 0.00 59 1009.2
20260830104153 61 148 4.0 6.0 0.00 0.01 0.00 60 1009.2
20260830103157 62 39 1.0 4.0 0.00 0.01 0.00 60 1009.2
20260830102206 62 36 1.0 2.0 0.00 0.01 0.00 59 1009.3
20260830101206 63 39 0.0 2.0 0.00 0.01 0.00 58 1009.2
20260830100152 63 39 1.0 3.0 0.00 0.01 0.00 57 1009.2
20260830095202 63 38 3.0 5.0 0.00 0.01 0.00 57 1009.2
20260830094205 64 22 1.0 6.0 0.00 0.01 0.00 56 1009.2
20260830093202 65 30 3.0 6.0 0.00 0.01 0.00 53 1009.2
20260830092231 66 157 3.0 7.0 0.00 0.01 0.00 50 1008.8
20260830091158 65 159 3.0 4.0 0.00 0.01 0.00 52 1009.1
20260830090205 65 159 1.0 7.0 0.00 0.01 0.00 52 1009.1
20260830085155 65 159 4.0 7.0 0.00 0.01 0.00 53 1009.0
20260830084157 65 161 4.0 6.0 0.00 0.01 0.00 53 1009.3
20260830083155 65 184 4.0 8.0 0.00 0.01 0.00 53 1009.3
20260830082202 64 188 3.0 6.0 0.00 0.01 0.00 54 1009.3
20260830081230 65 187 3.0 8.0 0.00 0.01 0.00 55 1009.3
20260830080230 65 197 3.0 9.0 0.00 0.01 0.00 54 1009.3
20260830075155 66 168 6.0 8.0 0.00 0.01 0.00 53 1009.4
20260830074200 66 168 6.0 10.0 0.00 0.01 0.00 52 1009.6
20260830073201 65 161 5.0 8.0 0.00 0.01 0.00 52 1009.6
20260830072205 64 165 5.0 9.0 0.00 0.01 0.00 55 1009.9
20260830071207 64 186 5.0 9.0 0.00 0.01 0.00 58 1010.0
20260830070225 65 164 5.0 8.0 0.00 0.01 0.00 56 1010.0
20260830065208 65 173 6.0 9.0 0.00 0.01 0.00 55 1010.2
20260830064210 65 166 4.0 7.0 0.00 0.01 0.00 54 1010.5
20260830063154 65 164 3.0 8.0 0.00 0.01 0.00 55 1010.5
20260830062159 65 167 5.0 9.0 0.00 0.01 0.00 56 1010.6
20260830061155 65 168 7.0 12.0 0.00 0.01 0.00 57 1010.6
20260830060202 64 173 6.0 12.0 0.00 0.01 0.00 58 1010.6
20260830055154 64 167 5.0 10.0 0.00 0.01 0.01 59 1011.0
20260830054223 64 163 3.0 5.0 0.00 0.01 0.01 60 1011.1
20260830053207 64 161 3.0 9.0 0.00 0.01 0.01 59 1011.1
20260830052207 63 172 4.0 8.0 0.00 0.01 0.01 61 1011.2
20260830051213 62 100 4.0 5.0 0.00 0.01 0.01 62 1011.2
20260830050156 62 61 2.0 4.0 0.00 0.01 0.01 63 1011.2
20260830045155 62 55 3.0 4.0 0.00 0.01 0.01 62 1011.2
20260830044204 63 53 0.0 1.0 0.00 0.01 0.01 61 1011.7
20260830043154 64 53 0.0 2.0 0.00 0.01 0.01 60 1011.7
20260830042215 65 53 2.0 3.0 0.00 0.01 0.01 58 1011.8
20260830041159 65 53 0.0 0.0 0.00 0.01 0.01 58 1011.8
20260830040227 66 53 0.0 3.0 0.00 0.01 0.01 56 1011.8
20260830035206 66 52 1.0 3.0 0.00 0.01 0.01 54 1011.8
20260830034154 67 50 1.0 4.0 0.00 0.01 0.01 52 1011.3
20260830033157 68 49 1.0 5.0 0.00 0.01 0.01 50 1011.3
20260830032202 69 51 2.0 7.0 0.00 0.01 0.01 49 1011.1
20260830031205 70 28 3.0 8.0 0.00 0.01 0.01 47 1011.2
20260830030230 71 11 6.0 17.0 0.00 0.01 0.01 46 1011.2
20260830025153 72 21 3.0 13.0 0.00 0.01 0.01 47 1011.1
20260830024152 71 30 4.0 10.0 0.00 0.01 0.01 46 1010.5
20260830023204 71 109 0.0 3.0 0.00 0.01 0.01 47 1010.5
20260830022153 71 111 2.0 4.0 0.00 0.01 0.01 48 1010.0
20260830021230 71 111 2.0 4.0 0.00 0.01 0.01 48 1009.7
20260830020156 71 111 1.0 4.0 0.00 0.01 0.01 47 1009.7
20260830015200 72 109 1.0 3.0 0.00 0.01 0.01 46 1009.8
20260830014223 73 108 0.0 5.0 0.00 0.01 0.01 45 1009.4
20260830013207 74 103 2.0 5.0 0.00 0.01 0.01 41 1009.4
20260830012152 75 98 3.0 9.0 0.00 0.01 0.01 44 1009.4
20260830011217 76 97 4.0 7.0 0.00 0.01 0.01 42 1009.3
20260830010200 77 106 3.0 7.0 0.00 0.01 0.01 41 1009.3
20260830005209 79 157 0.0 3.0 0.00 0.02 0.01 38 1009.3
20260830004153 80 157 0.0 2.0 0.00 0.02 0.01 35 1009.3
20260830003152 80 157 2.0 4.0 0.00 0.02 0.01 31 1009.3